GABSDIBK

Guest
Details From GABS - Bamako Senou
To DIBK - BOUAKE
Flight Number -
Tags generated
Created
Modified
Stats Distance 334 nm / 619 km
Max Altitude 33,800 ft / 10,302 m
Waypoints 6
Social Downloads 0
Likes 0
Share VATSIM

Download

Looking for another format? Having issues loading an existing format? Contact us
Advertisement - Login to hide

Notes

Basic altitude profile: - Ascent Rate: 2500ft/min - Ascent Speed: 250kts - Cruise Altitude: 35000ft - Cruise Speed: 420kts - Descent Rate: 1500ft/min - Descent Speed: 250kts Options: - Use NATs: yes - Use PACOTS: yes - Use low airways: yes - Use high airways: yes

Route

GABS POTAL G851F EDAMO UG851 BKY DIBK

ID Type Via Altitude Latitude Longitude Leg Dist Tot Dist Heading (true) Name
O GABS APT - 0 ft / 0 m 12.53354˚ -7.94994˚ - 0 nm - Bamako Senou
POTAL FIX - 27,600 ft / 8,412 m 11.39472˚ -7.23556˚ 80 nm 80 nm 148° / 149° -
EDAMO FIX G851F (AWY-LO) 23,500 ft / 7,163 m 10.79444˚ -6.87639˚ 41 nm 122 nm 150° / 150° -
GUREL FIX UG851 (AWY-HI) 33,800 ft / 10,302 m 10.08194˚ -6.45167˚ 49 nm 171 nm 150° / 150° -
BKY VOR UG851 (AWY-HI) 23,500 ft / 7,163 m 7.74728˚ -5.07494˚ 162 nm 333 nm 150° / 150° BOUAKE VOR-DME
O DIBK APT - 0 ft / 0 m 7.73880˚ -5.07367˚ 0 nm 334 nm 172° / 172° BOUAKE

Altitude Profile

Advertisement - Login to hide

Weather


0- 5 10 15 20 25 30 35+ Temperature / ° C

Clouds and Precipitation
Forecast for 2018-05-26 00:00 UTC. Updated 3 hours ago

Ground ~20,000 ft ~40,000 ft Winds

GABS

Details ICAO GABS (BKO)
Name Bamako Senou
Region Mali
Timezone Africa/Bamako (UTC+0.0)
Stats Elevation 1,246 ft / 380 m (AMSL)
Location 12.533544° -7.949943°
Runways 1
Magnetic Variation 4.116° W

METAR

GABS 260130Z 13014KT 4000 TSRA FEW030 SCT040CB 27/20 Q1011 TEMPO 10020G40KT 2000 SQ +TSRA

Decode

TAF

TAF AMD GABS 260100Z 2601/2706 20010KT 9999 FEW030 PROB40 TEMPO 2601/2604 VRB15G25KT 4000 TSRA SCT030 FEW33CB TEMPO 2609/2615 33008KT PROB30 TEMPO 2615/2624 VRB15G25KT 4000 TSRA SCT030 FEW033CB

Decode

Departure Runways

ID Width Length Bearing (true) Bearing (mag) Surface Threshold Offset Overrun Length
06 148 ft / 45 m 8,888 ft / 2,709 m 56.51° 60.63° Asphalt 0 ft / 0 m 327 ft / 100 m
24 148 ft / 45 m 8,888 ft / 2,709 m 236.51° 240.63° Asphalt 0 ft / 0 m 327 ft / 100 m

DIBK

Details ICAO DIBK (BYK)
Name BOUAKE
Region Côte d'Ivoire
Timezone Africa/Abidjan (UTC+0.0)
Stats Elevation 1,230 ft / 375 m (AMSL)
Location 7.738800° -5.073666°
Runways 1
Magnetic Variation 4.312° W

METAR

Not found

TAF

TAF DIBK 252300Z 2600/2624 23004KT 9999 SCT013 PROB30 TEMPO 2600/2603 TS BKN013 FEW030CB TEMPO 2615/2620 TS BKN013 FEW030CB

Decode

Destination Runways

ID Width Length Bearing (true) Bearing (mag) Surface Threshold Offset Overrun Length
03 148 ft / 45 m 10,872 ft / 3,314 m 24.08° 28.39° Asphalt 0 ft / 0 m 951 ft / 290 m
21 148 ft / 45 m 10,872 ft / 3,314 m 204.08° 208.39° Asphalt 0 ft / 0 m 951 ft / 290 m